Home   Weather   27°56'N, 82°27'W   Past weeks
Flag for USA

Past Weather in 27°56'N, 82°27'W, USA — Yesterday and Last 2 Weeks

Now
64 °F

Overcast.


Feels Like: 64 °F
Forecast: 67 / 54 °F
Wind: 7 mph from Northeast

Location: Tampa, Peter O Knight Airport

Current Time: Mar 19, 2019 at 5:49:32 pm

Latest Report: Mar 19, 2019 at 5:15 pm


Visibility: 10 mi

Pressure: 30.09 "Hg

Humidity: 83%

Dew Point: 59 °F

Location of 27°56'N, 82°27'WLocation

Past Weather in 27°56'N, 82°27'W — Graph

°F

27°56'N, 82°27'W Temperature Yesterday

Maximum temperature yesterday: 73 °F (at 1:35 pm)
Minimum temperature yesterday: 59 °F (at 3:55 am)
Average temperature yesterday: 65 °F

High & Low Weather Summary for the Past Weeks

 TemperatureHumidityPressure
High86 °F (Mar 15, 2:55 pm)100% (Mar 5, 9:15 am)30.38 "Hg (Mar 5, 9:15 am)
Low43 °F (Mar 6, 6:55 am)24% (Mar 6, 5:35 pm)29.97 "Hg (Mar 4, 3:15 pm)
Average67 °F75%30.16 "Hg
* Reported Mar 4 3:15 pm — Mar 19 4:35 pm, 27°56'N, 82°27'W. Weather by CustomWeather, © 2019

Note: Actual official high and low records may vary slightly from our data, if they occured in-between our weather recording intervals... More about our weather records

Advertising

27°56'N, 82°27'W Weather History for the Previous 24 Hours

Scroll right to see more
 ConditionsComfort  
Time TempWeatherWind HumidityBarometerVisibility
4:35 pm
Tue, Mar 19
63 °FOvercast.7 mph88%30.10 "Hg10 mi
4:15 pm63 °FOvercast.7 mph88%30.10 "Hg10 mi
3:55 pm63 °FMore clouds than sun.7 mph88%30.10 "Hg10 mi
3:35 pm63 °FMore clouds than sun.8 mph88%30.11 "Hg10 mi
3:15 pm63 °FMore clouds than sun.8 mph83%30.11 "Hg10 mi
2:55 pm63 °FOvercast.9 mph83%30.13 "Hg10 mi
2:35 pm63 °FOvercast.9 mph83%30.13 "Hg10 mi
1:55 pm63 °FOvercast.12 mph83%30.14 "Hg10 mi
1:35 pm61 °FOvercast.13 mph83%30.14 "Hg10 mi
1:15 pm61 °FMostly cloudy.10 mph83%30.15 "Hg10 mi
12:55 pm59 °FDrizzle. Overcast.10 mph88%30.15 "Hg10 mi
12:35 pm59 °FLight rain. Overcast.10 mph82%30.16 "Hg10 mi
12:15 pm59 °FOvercast.13 mph82%30.16 "Hg10 mi
11:55 am59 °FOvercast.10 mph82%30.16 "Hg10 mi
11:35 am59 °FMostly cloudy.15 mph82%30.14 "Hg10 mi
11:15 am59 °FMostly cloudy.13 mph82%30.14 "Hg10 mi
10:55 am59 °FMore clouds than sun.12 mph77%30.14 "Hg10 mi
10:35 am57 °FOvercast.10 mph88%30.14 "Hg10 mi
10:15 am55 °FOvercast.13 mph88%30.14 "Hg10 mi
9:35 am55 °FRain. Mostly cloudy.13 mph88%30.14 "Hg10 mi
9:15 am55 °FLight rain. Mostly cloudy.9 mph88%30.14 "Hg10 mi
8:35 am57 °FLight rain. More clouds than sun.7 mph82%30.14 "Hg10 mi
8:15 am55 °FDrizzle. More clouds than sun.5 mph88%30.13 "Hg10 mi
7:55 am57 °FLight rain. More clouds than sun.9 mph82%30.12 "Hg10 mi
7:35 am55 °FLight rain. Cloudy.8 mph88%30.11 "Hg10 mi
7:15 am55 °FLight rain. Mostly cloudy.5 mph88%30.12 "Hg10 mi
6:55 am57 °FLight rain. Overcast.3 mph82%30.12 "Hg10 mi
6:35 am57 °FMostly cloudy.No wind82%30.11 "Hg10 mi
6:15 am55 °FMostly cloudy.3 mph88%30.10 "Hg10 mi
5:55 am57 °FOvercast.6 mph82%30.09 "Hg10 mi
5:35 am55 °FOvercast.6 mph88%30.10 "Hg10 mi
5:15 am55 °FOvercast.5 mph88%30.10 "Hg10 mi
4:55 am55 °FDrizzle. Overcast.5 mph88%30.11 "Hg10 mi
4:35 am55 °FRain. Mostly cloudy.6 mph88%30.10 "Hg10 mi
4:15 am55 °FLight rain. Overcast.7 mph88%30.10 "Hg10 mi
3:35 am55 °FPassing clouds.6 mph82%30.11 "Hg10 mi
3:15 am55 °FPartly cloudy.9 mph88%30.10 "Hg10 mi
2:55 am55 °FPartly cloudy.9 mph82%30.12 "Hg10 mi
2:35 am55 °FLight rain. Partly cloudy.8 mph82%30.14 "Hg10 mi
2:15 am55 °FLight rain. Overcast.8 mph82%30.16 "Hg10 mi
1:55 am55 °FLight rain. Overcast.7 mph77%30.17 "Hg10 mi
1:35 am55 °FLight rain. Mostly cloudy.10 mph77%30.17 "Hg10 mi
1:15 am55 °FLight rain. Overcast.7 mph77%30.17 "Hg10 mi
12:55 am55 °FLight rain. Overcast.9 mph77%30.18 "Hg10 mi
12:35 am59 °FLight rain. Overcast.7 mph63%30.18 "Hg10 mi
12:15 am59 °FRain. Mostly cloudy.12 mph59%30.17 "Hg10 mi
11:55 pm
Mon, Mar 18
61 °FLight rain. Mostly cloudy.14 mph63%30.17 "Hg10 mi
11:35 pm61 °FRain. Overcast.13 mph77%30.16 "Hg10 mi
11:15 pm61 °FLight rain. Overcast.10 mph77%30.17 "Hg10 mi
10:55 pm63 °FRain. Overcast.10 mph77%30.16 "Hg10 mi
10:35 pm64 °FDrizzle. Mostly cloudy.10 mph68%30.15 "Hg10 mi
10:15 pm64 °FMostly cloudy.9 mph68%30.15 "Hg10 mi
9:35 pm64 °FOvercast.14 mph68%30.12 "Hg10 mi
8:55 pm66 °FMostly cloudy.12 mph68%30.12 "Hg10 mi
8:35 pm66 °FMostly cloudy.13 mph64%30.12 "Hg10 mi
8:15 pm68 °FOvercast.13 mph60%30.11 "Hg10 mi
7:55 pm68 °FOvercast.15 mph64%30.11 "Hg10 mi
7:35 pm68 °FOvercast.9 mph64%30.09 "Hg10 mi
7:15 pm70 °FCloudy.10 mph60%30.08 "Hg10 mi
6:35 pm70 °FMore clouds than sun.13 mph60%30.06 "Hg10 mi
6:15 pm70 °FCloudy.12 mph60%30.06 "Hg10 mi
5:35 pm72 °FOvercast.9 mph61%30.05 "Hg10 mi
5:15 pm72 °FOvercast.10 mph61%30.06 "Hg10 mi
Weather by CustomWeather, © 2019

See weather overview